Regional Weather Roundup
Issued by NWS Mt. Holly, NJ

Home | Current Version | Previous Version | Text Only | Print | Product List | Glossary On
Versions: 1 2 3 4 5 6 7 8 9 10 11 12 13 14 15 16 17 18 19 20 21 22 23 24 25 26 27 28 29 30 31 32 33 34 35 36 37 38 39 40 41 42 43 44 45 46 47 48 49 50
000
ASUS41 KPHI 281411
RWRPHI

REGIONAL WEATHER ROUNDUP
NATIONAL WEATHER SERVICE MOUNT HOLLY NJ
900 AM EST SAT FEB 28 2015

NOTE:  "FAIR" INDICATES FEW OR NO CLOUDS BELOW 12,000 FEET WITH NO
SIGNIFICANT WEATHER AND/OR OBSTRUCTIONS TO VISIBILITY.

 * = STATION DOES NOT REPORT PRECIPITATION (E.G. RAIN, SNOW, ETC.)
        OR FOG.

NJZ015>026-281500-
SOUTHERN NEW JERSEY

CITY           SKY/WX    TMP DP  RH WIND       PRES   REMARKS
POMONA         SUNNY     19   0  43 N12       30.83R WCI   7
RIO GRANDE*    SUNNY     19   0  42 N10       30.84R WCI   8
MILLVILLE      SUNNY     20   0  41 N10       30.83R WCI   9
WRIGHTSTOWN    SUNNY     17  -2  42 N12       30.81R WCI   4
MOUNT HOLLY    SUNNY     17  -2  43 N8        30.84R WCI   7
TRENTON        SUNNY     16  -3  43 N9        30.82R WCI   4

$$
NJZ001>014-281500-
NORTHERN NEW JERSEY

CITY           SKY/WX    TMP DP  RH WIND       PRES   REMARKS
SUSSEX         SUNNY     13  -3  49 N5        30.77R WCI   5
ANDOVER*         N/A     13  -4  46 VRB6      30.78R WCI   4
MORRISTOWN     SUNNY     16   0  48 NE7       30.83R WCI   6
NEWARK         MOSUNNY   18  -1  43 NW6       30.83R WCI  10
TETERBORO      SUNNY     16  -3  43 N7        30.82R WCI   6
CALDWELL       SUNNY     15  -4  42 N5        30.82R WCI   8
SOMERVILLE     SUNNY     16  -4  41 NW7       30.81R WCI   6
ALLAIRE*       SUNNY     16  -2  45 NW10      30.81R WCI   3
TOMS RIVER*    SUNNY     18   0  45 N10       30.83R WCI   6

$$
PAZ043-044-047-054-055-060>062-066>071-281500-
EASTERN PENNSYLVANIA

CITY           SKY/WX    TMP DP  RH WIND       PRES   REMARKS
PHILADELPHIA   MOSUNNY   20  -2  38 N9        30.86R WCI   9
NORTH PHILA    SUNNY     19  -4  36 N7        30.85R WCI  10
BLUE BELL      SUNNY     19   0  42 NW3       30.81R
DOYLESTOWN     SUNNY     14  -3  47 N5        30.80R WCI   6
QUAKERTOWN*    SUNNY     14  -2  48 N7        30.80S WCI   4
POTTSTOWN      SUNNY     16  -5  39 N7        30.83R WCI   6
LANCASTER      SUNNY     16  -3  43 N8        30.81R WCI   5
COATESVILLE    SUNNY     18   0  45 NW5       30.80R WCI  11
READING        SUNNY     15  -5  40 N5        30.82R WCI   8
ALLENTOWN      SUNNY     13  -5  44 N6        30.81R WCI   4
MOUNT POCONO     N/A    N/A N/A N/A MISG      30.63R
HAZLETON       SUNNY     10  -6  48 NW6       30.71R WCI   1
WILKES BARRE   SUNNY     11  -5  48 CALM      30.77R

$$
DEZALL-MDZ008-012-015-019-020-281500-
DELAWARE AND EASTERN MARYLAND

CITY           SKY/WX    TMP DP  RH WIND       PRES   REMARKS
WILMINGTON     SUNNY     19   0  43 N10       30.85R WCI   7
DOVER          MOSUNNY   21   5  48 N13       30.85R WCI   9
GEORGETOWN     MOSUNNY   27   4  37 N12       30.84R WCI  17
EASTON         MOSUNNY   21   7  53 NE9       30.88R WCI  11
PATUXENT       CLOUDY    22   6  50 N15       30.85R WCI   9
OCEAN CITY     SUNNY     23   7  50 NE15G21   30.82R WCI  10
WALLOPS ISLAND SUNNY     22   9  57 N8        30.82R WCI  12
CAMBRIDGE      MOSUNNY   23   5  46 N7        30.84R WCI  15
SALISBURY      MOSUNNY   24   8  50 VRB7      30.83R WCI  16

$$
PAZ001-021-NYZ056-072-MDZ011-DCZ001-281500-
OTHER NEARBY LOCATIONS

CITY           SKY/WX    TMP DP  RH WIND       PRES   REMARKS
HARRISBURG     MOSUNNY   21   1  41 N7        30.82R WCI  12
STATE COLLEGE  SUNNY      5  -4  66 CALM      30.75R
WILLIAMSPORT   SUNNY     13  -4  46 W9        30.83R WCI   1
BINGHAMTON     SUNNY      2  -6  69 W6        30.68R WCI  -9
NEW YORK CITY  SUNNY     17  -2  43 N5        30.83R WCI  10
BALTIMORE      PTSUNNY   19  -1  41 VRB5      30.85R WCI  12
WASHINGTON DC  PTSUNNY   23   0  36 N9        30.87R WCI  13

$$


USA.gov is the U.S. government's official web portal to all federal, state and local government web resources and services.